Weather History for Louisburg, NC

Change the Weather History Date:

Wednesday, December 19, 2012

  Actual Average (KRDU) Record (KRDU)
Temperature  
Mean Temperature 48 °F 42 °F  
Max Temperature 64 °F 53 °F 76 °F (1984)
Min Temperature 33 °F 32 °F 10 °F (1975)
Degree Days  
Heating Degree Days 16 23  
Month to date heating degree days 386  
Since 1 July heating degree days 967  
Cooling Degree Days 0 0  
Month to date cooling degree days 0  
Year to date cooling degree days 1728  
Moisture  
Dew Point 33 °F    
Average Humidity 62    
Maximum Humidity 100    
Minimum Humidity 30    
Precipitation  
Precipitation 0.00 in 0.09 in 1.40 in (1934)
Month to date precipitation 1.87  
Year to date precipitation 42.14  
Snow  
Snow 0.00 in 0.00 in 0.60 in (1922)
Month to date snowfall 0.2  
Since 1 July snowfall 0.3  
Snow Depth -    
Sea Level Pressure  
Sea Level Pressure 30.02 in    
Wind  
Wind Speed 2 mph (WSW)    
Max Wind Speed 8 mph    
Max Gust Speed 16 mph    
Visibility 10 miles    
Events      
T = Trace of Precipitation, MM = Missing Value Source: NWS Daily Summary

Daily Weather History Graph

Daily Weather History Graph

Search for Another Location

Airport:

Trip Planner

Search our weather history database for the weather conditions in past years. The results will help you decide how hot, cold, wet, or windy it might be!

Date:

Astronomy

Dec. 19, 2012 Rise Set
Actual Time 7:19 AM EST 5:02 PM EST
Civil Twilight 6:50 AM EST 5:30 PM EST
Nautical Twilight 6:18 AM EST 6:02 PM EST
Astronomical Twilight 5:47 AM EST 6:34 PM EST
Moon 11:39 AM EST (12/19) No Moon Set
Length of Visible Light 10h 39m
Length of Day
9h 42m
Waxing Crescent, 45% of the Moon is Illuminated
Dec 19
Waxing Crescent
Dec 20
First Quarter
Dec 28
Full
Jan 4
Last Quarter
Jan 11
New

Hourly Weather History & Observations

Time (EST) Temp. Windchill Dew Point Humidity Pressure Visibility Wind Dir Wind Speed Gust Speed Precip Events Conditions
12:15 AM 37.4 °F - 32.0 °F 81% 29.91 in 10.0 mi Calm Calm - N/A   Clear
12:35 AM 37.4 °F - 32.0 °F 81% 29.90 in 10.0 mi Calm Calm - N/A   Clear
12:55 AM 37.4 °F - 32.0 °F 81% 29.89 in 10.0 mi Calm Calm - N/A   Clear
1:15 AM 35.6 °F - 32.0 °F 87% 29.90 in 10.0 mi Calm Calm - N/A   Clear
1:35 AM 35.6 °F - 32.0 °F 87% 29.91 in 10.0 mi Calm Calm - N/A   Clear
1:55 AM 35.6 °F - 32.0 °F 87% 29.91 in 10.0 mi Calm Calm - N/A   Clear
2:15 AM 35.6 °F 32.8 °F 32.0 °F 87% 29.91 in 10.0 mi South 3.5 mph - N/A   Clear
2:35 AM 35.6 °F - 32.0 °F 87% 29.91 in 10.0 mi Calm Calm - N/A   Clear
2:55 AM 33.8 °F - 33.8 °F 100% 29.92 in 10.0 mi Calm Calm - N/A   Clear
3:15 AM - - - N/A% 29.92 in 10.0 mi Calm Calm - N/A   Clear
3:35 AM - - - N/A% 29.93 in 10.0 mi Calm Calm - N/A   Clear
8:15 AM 39.2 °F 37.0 °F 35.6 °F 87% 30.00 in 10.0 mi SW 3.5 mph - N/A   Clear
8:35 AM 41.0 °F 38.0 °F 32.0 °F 70% 30.00 in 10.0 mi SSW 4.6 mph - N/A   Clear
8:55 AM 42.8 °F 41.1 °F 32.0 °F 66% 30.01 in 10.0 mi SSW 3.5 mph - N/A   Clear
9:15 AM 46.4 °F 44.3 °F 32.0 °F 57% 30.02 in 10.0 mi SW 4.6 mph - N/A   Clear
9:35 AM 48.2 °F - 32.0 °F 54% 30.02 in 10.0 mi SW 3.5 mph - N/A   Clear
9:55 AM 50.0 °F - 32.0 °F 50% 30.02 in 10.0 mi WSW 3.5 mph - N/A   Clear
10:15 AM 51.8 °F - 32.0 °F 47% 30.02 in 10.0 mi WSW 4.6 mph - N/A   Clear
10:35 AM 53.6 °F - 32.0 °F 44% 30.03 in 10.0 mi WSW 5.8 mph - N/A   Clear
10:55 AM 55.4 °F - 32.0 °F 41% 30.03 in 10.0 mi WSW 3.5 mph - N/A   Clear
11:15 AM 59.0 °F - 32.0 °F 36% 30.02 in 10.0 mi West 6.9 mph - N/A   Clear
11:35 AM 59.0 °F - 32.0 °F 36% 30.01 in 10.0 mi West 8.1 mph - N/A   Clear
11:55 AM 60.8 °F - 32.0 °F 34% 30.01 in 10.0 mi West 4.6 mph 16.1 mph N/A   Clear
12:15 PM 60.8 °F - 32.0 °F 34% 30.01 in 10.0 mi West 5.8 mph - N/A   Clear
12:35 PM 60.8 °F - 32.0 °F 34% 30.00 in 10.0 mi WNW 8.1 mph - N/A   Clear
12:55 PM 60.8 °F - 32.0 °F 34% 30.00 in 10.0 mi WNW 6.9 mph 16.1 mph N/A   Clear
1:15 PM 62.6 °F - 32.0 °F 32% 29.99 in 10.0 mi West 5.8 mph - N/A   Clear
1:35 PM 62.6 °F - 32.0 °F 32% 29.98 in 10.0 mi NW 4.6 mph - N/A   Clear
1:55 PM 62.6 °F - 32.0 °F 32% 29.99 in 10.0 mi WSW 4.6 mph - N/A   Clear
2:15 PM 62.6 °F - 32.0 °F 32% 29.98 in 10.0 mi WNW 6.9 mph - N/A   Clear
2:35 PM 62.6 °F - 32.0 °F 32% 29.99 in 10.0 mi WNW 5.8 mph - N/A   Clear
2:55 PM 64.4 °F - 32.0 °F 30% 29.98 in 10.0 mi Calm Calm - N/A   Clear
3:15 PM 62.6 °F - 32.0 °F 32% 29.99 in 10.0 mi WSW 3.5 mph - N/A   Clear
3:35 PM 62.6 °F - 32.0 °F 32% 30.00 in 10.0 mi Calm Calm - N/A   Clear
3:55 PM 60.8 °F - 32.0 °F 34% 30.00 in 10.0 mi Calm Calm - N/A   Clear
4:15 PM 60.8 °F - 32.0 °F 34% 30.00 in 10.0 mi Calm Calm - N/A   Clear
4:35 PM 57.2 °F - 33.8 °F 41% 30.01 in 10.0 mi Calm Calm - N/A   Clear
4:55 PM 51.8 °F - 35.6 °F 54% 30.02 in 10.0 mi Calm Calm - N/A   Clear
5:15 PM 50.0 °F - 35.6 °F 58% 30.03 in 10.0 mi Calm Calm - N/A   Clear
5:35 PM 50.0 °F - 35.6 °F 58% 30.03 in 10.0 mi Calm Calm - N/A   Clear
5:55 PM 46.4 °F - 35.6 °F 66% 30.04 in 10.0 mi Calm Calm - N/A   Clear
6:15 PM 46.4 °F - 35.6 °F 66% 30.05 in 10.0 mi Calm Calm - N/A   Clear
6:35 PM 46.4 °F - 35.6 °F 66% 30.06 in 10.0 mi Calm Calm - N/A   Clear
6:55 PM 46.4 °F - 35.6 °F 66% 30.07 in 10.0 mi Calm Calm - N/A   Clear
7:15 PM 46.4 °F - 33.8 °F 62% 30.07 in 10.0 mi Calm Calm - N/A   Clear
7:35 PM 42.8 °F - 33.8 °F 70% 30.08 in 10.0 mi Calm Calm - N/A   Clear
7:55 PM 42.8 °F - 35.6 °F 76% 30.08 in 10.0 mi Calm Calm - N/A   Clear
8:15 PM 42.8 °F - 35.6 °F 76% 30.09 in 10.0 mi Calm Calm - N/A   Clear
8:35 PM 41.0 °F - 33.8 °F 76% 30.10 in 10.0 mi Calm Calm - N/A   Clear
8:55 PM 41.0 °F - 33.8 °F 76% 30.10 in 10.0 mi Calm Calm - N/A   Clear
9:15 PM 41.0 °F - 35.6 °F 81% 30.10 in 10.0 mi Calm Calm - N/A   Clear
9:35 PM 39.2 °F - 33.8 °F 81% 30.11 in 10.0 mi Calm Calm - N/A   Clear
9:55 PM 39.2 °F - 35.6 °F 87% 30.11 in 10.0 mi Calm Calm - N/A   Clear
10:15 PM 39.2 °F - 33.8 °F 81% 30.13 in 10.0 mi Calm Calm - N/A   Clear
10:35 PM 37.4 °F - 35.6 °F 93% 30.13 in 10.0 mi Calm Calm - N/A   Clear
10:55 PM 35.6 °F - 35.6 °F 100% 30.13 in 10.0 mi Calm Calm - N/A   Clear
11:15 PM 35.6 °F - 35.6 °F 100% 30.14 in 10.0 mi Calm Calm - N/A   Clear
11:35 PM 37.4 °F - 37.4 °F 100% 30.14 in 10.0 mi Calm Calm - N/A   Clear
11:55 PM 37.4 °F 33.8 °F 37.4 °F 100% 30.16 in 10.0 mi NNE 4.6 mph - N/A   Clear